Location: Anna State Hospital Reservoir Dam
(37.4723°N, 89.2956°W)
Time: 21:58:11
(UTC+00:00)

Daily predictions for brighter satellites

Satellite Brightness Start Highest point End
(mag) Time Altitude Azimuth Time Altitude Azimuth Time Altitude Azimuth
Cosmos 1633 3.6 12:00:34 10° NW 12:03:33 24° W 12:06:31 10° SW
Lacrosse 5 2.9 12:01:46 10° WNW 12:06:00 27° WSW 12:10:13 10° S
Aureole 2 Rocket 4.1 12:07:25 10° WNW 12:09:02 13° W 12:10:42 10° SW
ALOS 3.4 12:06:27 10° NNW 12:10:06 23° WNW 12:13:44 10° WSW
Shenzhou-11 Module 3.3 12:08:39 10° WNW 12:10:53 24° N 12:13:06 10° NE
Cosmos 1943 Rocket 3.6 12:08:10 10° WNW 12:11:19 16° W 12:14:27 10° SW
Cosmos 1802 Rocket 4.5 12:07:48 10° NNW 12:13:42 40° W 12:19:34 10° SSW
Sich 1 3.6 12:11:15 10° NNW 12:15:08 34° W 12:19:02 10° SSW
Cosmos 1470 Rocket 4.1 12:11:08 10° N 12:15:35 66° E 12:20:02 10° SSE
